Location: Bruderhein
(53.8035°N, 112.9265°W)
Time: 03:23:10
(UTC+00:00)

STRAND 1 - Pass Details

Date: 07 April 2023
Orbit: 767 x 779 km, 98.4° (Epoch: 31 May)

Event Time Altitude Azimuth Distance (km) Brightness Sun altitude
Rises 11:24:58 0° 112° (ESE) 3,246 ? -12.5°
Reaches altitude 10° 11:27:54 10° 95° (E) 2,321 ? -12.1°
Maximum altitude 11:31:21 19° 52° (NE) 1,799 ? -11.7°
Drops below altitude 10° 11:34:47 10° 9° (N) 2,326 ? -11.3°
Sets 11:37:43 0° 352° (N) 3,255 ? -10.9°
